Tracking 25963 objects as of 13-Aug-2022
HD Live streaming from Space Station
objects crossing your sky now

TIROS 6

Track TIROS 6 now!
10-day predictions
TIROS 6 is classified as:


NORAD ID: 397
Int'l Code: 1962-047A
Perigee: 599.2 km
Apogee: 617.1 km
Inclination: 58.3 °
Period: 96.7 minutes
Semi major axis: 6979 km
RCS: 0.807 m2 (medium)
Launch date: September 18, 1962
Source: United States (US)
Launch site: AIR FORCE EASTERN TEST RANGE (AFETR)
aabbcc
Your satellite tracking list
Your tracking list is empty




NASA's NSSDC Master Catalog

Two Line Element Set (TLE):
1 00397U 62047A   22224.40937181  .00000337  00000-0  58457-4 0  9999
2 00397  58.3042 258.1729 0012793  50.5516 309.6658 14.89021215202623
Source of the keplerian elements: AFSPC